Location: South Troy
(42.7009°N, 73.6726°W)
Time: 15:19:51
(UTC+00:00)

Cosmos 2369 Rocket - Pass Details

Date: 20 September 2024
Orbit: 826 x 853 km, 71.0° (Epoch: 08 October)

Event Time Altitude Azimuth Distance (km) Brightness Sun altitude
Rises 23:13:38 0° 346° (NNW) 3,432 5.6 -4.3°
Reaches altitude 10° 23:17:07 10° 8° (N) 2,491 4.6 -5.0°
Maximum altitude 23:20:38 16° 46° (NE) 2,068 3.9 -5.6°
Drops below altitude 10° 23:24:07 10° 84° (E) 2,479 4.0 -6.3°
Enters shadow 23:25:02 - 91° (E) 2,693 4.1 -6.4°
